Weather History for Flagstaff, AZ

Change the Weather History Date:

Wednesday, November 27, 2013

  Actual Average Record
Temperature  
Mean Temperature 32 °F 33 °F  
Max Temperature 40 °F 46 °F 68 °F (1949)
Min Temperature 23 °F 20 °F -5 °F (1952)
Degree Days  
Heating Degree Days 33 32  
Month to date heating degree days 726 751  
Since 1 July heating degree days 1659 1634  
Cooling Degree Days 0 0  
Month to date cooling degree days 0 0  
Year to date cooling degree days 148 117  
Moisture  
Dew Point 26 °F    
Average Humidity 76    
Maximum Humidity 92    
Minimum Humidity 59    
Precipitation  
Precipitation 0.00 in 0.06 in 2.96 in (1919)
Month to date precipitation 2.22 1.59  
Year to date precipitation 23.44 19.82  
Snow  
Snow 0.00 in 0.50 in 23.00 in (1919)
Month to date snowfall 11.4 9.1  
Since 1 July snowfall 12.0 10.6  
Snow Depth 1.00 in    
Sea Level Pressure  
Sea Level Pressure 30.20 in    
Wind  
Wind Speed 7 mph (ENE)    
Max Wind Speed 15 mph    
Max Gust Speed 20 mph    
Visibility 10 miles    
Events      
T = Trace of Precipitation, MM = Missing Value Source: NWS Daily Summary

Daily Weather History Graph

Daily Weather History Graph

Search for Another Location

Airport:

Trip Planner

Search our weather history database for the weather conditions in past years. The results will help you decide how hot, cold, wet, or windy it might be!

Date:

Astronomy

Nov. 27, 2013 Rise Set
Actual Time 7:13 AM MST 5:15 PM MST
Civil Twilight 6:45 AM MST 5:43 PM MST
Nautical Twilight 6:14 AM MST 6:14 PM MST
Astronomical Twilight 5:43 AM MST 6:44 PM MST
Moon 1:31 AM MST (11/27) 1:43 PM MST (11/27)
Length of Visible Light 10h 57m
Length of Day
10h 02m
Waning Crescent, 31% of the Moon is Illuminated
Nov 27
Waning Crescent
Dec 2
New
Dec 9
First Quarter
Dec 17
Full
Dec 25
Last Quarter

Hourly Weather History & Observations

Time (MST) Temp. Windchill Dew Point Humidity Pressure Visibility Wind Dir Wind Speed Gust Speed Precip Events Conditions
12:57 AM 25.0 °F - 23.0 °F 92% 30.28 in 10.0 mi Calm Calm - N/A   Clear
1:57 AM 25.0 °F - 21.0 °F 85% 30.27 in 10.0 mi Calm Calm - N/A   Clear
2:57 AM 30.0 °F 22.4 °F 27.0 °F 88% 30.23 in 10.0 mi NE 8.1 mph - N/A   Clear
3:57 AM 30.0 °F 21.1 °F 28.0 °F 92% 30.21 in 10.0 mi ENE 10.4 mph - N/A   Clear
4:24 AM 30.0 °F 23.2 °F 28.0 °F 92% 30.27 in 10.0 mi ENE 6.9 mph - N/A   Scattered Clouds
4:57 AM 30.0 °F 25.2 °F 28.0 °F 92% 30.23 in 10.0 mi East 4.6 mph - N/A   Partly Cloudy
5:57 AM 28.9 °F 23.9 °F 26.1 °F 89% 30.25 in 10.0 mi ENE 4.6 mph - N/A   Clear
6:57 AM 30.0 °F 26.5 °F 26.1 °F 85% 30.25 in 10.0 mi East 3.5 mph - N/A   Clear
7:57 AM 30.0 °F 21.7 °F 28.0 °F 92% 30.27 in 10.0 mi ENE 9.2 mph - N/A   Clear
8:12 AM 30.0 °F 24.1 °F 28.0 °F 92% 30.28 in 10.0 mi ENE 5.8 mph - N/A   Partly Cloudy
8:31 AM 30.0 °F 24.1 °F 28.0 °F 92% 30.28 in 5.0 mi ENE 5.8 mph - N/A   Mostly Cloudy
8:57 AM 30.9 °F 24.3 °F 28.0 °F 89% 30.27 in 10.0 mi ENE 6.9 mph - N/A   Mostly Cloudy
9:07 AM 30.9 °F 23.5 °F 28.0 °F 89% 30.28 in 10.0 mi East 8.1 mph - N/A   Scattered Clouds
9:57 AM 34.0 °F 28.0 °F 26.1 °F 73% 30.24 in 10.0 mi Variable 6.9 mph - N/A   Clear
10:57 AM 37.0 °F 29.3 °F 25.0 °F 62% 30.22 in 10.0 mi NE 11.5 mph 17.3 mph N/A   Clear
11:57 AM 37.9 °F 30.0 °F 26.1 °F 62% 30.17 in 10.0 mi ENE 12.7 mph - N/A   Clear
12:57 PM 37.9 °F 30.5 °F 26.1 °F 62% 30.16 in 10.0 mi East 11.5 mph - N/A   Clear
1:57 PM 39.0 °F 31.0 °F 26.1 °F 60% 30.13 in 10.0 mi ENE 13.8 mph - N/A   Clear
2:57 PM 37.9 °F 30.9 °F 26.1 °F 62% 30.10 in 10.0 mi East 10.4 mph - N/A   Clear
3:57 PM 37.9 °F 30.9 °F 26.1 °F 62% 30.10 in 10.0 mi ENE 10.4 mph - N/A   Clear
4:57 PM 35.1 °F 27.9 °F 26.1 °F 70% 30.12 in 10.0 mi East 9.2 mph - N/A   Clear
5:57 PM 32.0 °F 26.4 °F 25.0 °F 75% 30.14 in 10.0 mi East 5.8 mph - N/A   Clear
6:57 PM 30.0 °F 23.2 °F 26.1 °F 85% 30.16 in 10.0 mi East 6.9 mph - N/A   Clear
7:57 PM 28.0 °F - 24.1 °F 85% 30.17 in 10.0 mi Calm Calm - N/A   Clear
8:57 PM 26.1 °F - 23.0 °F 88% 30.17 in 10.0 mi Calm Calm - N/A   Clear
9:57 PM 25.0 °F 20.7 °F 21.9 °F 88% 30.16 in 10.0 mi ENE 3.5 mph - N/A   Clear
10:57 PM 24.1 °F 17.0 °F 21.0 °F 88% 30.14 in 10.0 mi ENE 5.8 mph - N/A   Clear
11:57 PM 24.1 °F - 21.0 °F 88% 30.14 in 10.0 mi Calm Calm - N/A   Clear